Time,TemperatureF,DewpointF,PressureIn,WindDirection,WindDirectionDegrees,WindSpeedMPH,WindSpeedGustMPH,Humidity,HourlyPrecipIn,Conditions,Clouds,dailyrainin,SoftwareType,DateUTC
2013-02-10 00:02:00,34.1,31.8,0.00,NNW,334,0.3,1.8,91,0.00,,,0.00,WUHU216CR1000,2013-02-10 08:02:00,
2013-02-10 00:07:00,34.1,31.8,0.00,NNW,334,0.3,1.8,91,0.00,,,0.00,WUHU216CR1000,2013-02-10 08:07:00,
2013-02-10 00:17:00,34.6,31.7,0.00,NW,310,0.8,2.2,89,0.00,,,0.00,WUHU216CR1000,2013-02-10 08:17:00,
2013-02-10 00:22:00,34.6,31.7,0.00,NW,310,0.8,2.2,89,0.00,,,0.00,WUHU216CR1000,2013-02-10 08:22:00,
2013-02-10 00:32:00,34.3,31.2,0.00,SW,215,1.1,2.3,88,0.00,,,0.00,WUHU216CR1000,2013-02-10 08:32:00,
2013-02-10 00:37:00,34.3,31.2,0.00,SW,215,1.1,2.3,88,0.00,,,0.00,WUHU216CR1000,2013-02-10 08:37:00,
2013-02-10 00:47:00,33.7,31.2,0.00,SW,228,0.8,1.9,90,0.00,,,0.00,WUHU216CR1000,2013-02-10 08:47:00,
2013-02-10 00:52:00,33.7,31.2,0.00,SW,228,0.8,1.9,90,0.00,,,0.00,WUHU216CR1000,2013-02-10 08:52:00,
2013-02-10 01:02:00,33.2,31.2,0.00,WSW,238,0.8,2.2,92,0.00,,,0.00,WUHU216CR1000,2013-02-10 09:02:00,
2013-02-10 01:07:00,33.2,31.2,0.00,WSW,238,0.8,2.2,92,0.00,,,0.00,WUHU216CR1000,2013-02-10 09:07:00,
2013-02-10 01:17:00,33.2,31.3,0.00,SW,230,1.0,2.2,93,0.00,,,0.00,WUHU216CR1000,2013-02-10 09:17:00,
2013-02-10 01:22:00,33.2,31.3,0.00,SW,230,1.0,2.2,93,0.00,,,0.00,WUHU216CR1000,2013-02-10 09:22:00,
2013-02-10 01:32:00,33.5,31.4,0.00,SW,221,0.4,1.5,92,0.00,,,0.00,WUHU216CR1000,2013-02-10 09:32:00,
2013-02-10 01:37:00,33.5,31.4,0.00,SW,221,0.4,1.5,92,0.00,,,0.00,WUHU216CR1000,2013-02-10 09:37:00,
2013-02-10 01:47:00,33.0,30.8,0.00,SSW,211,0.4,1.2,92,0.00,,,0.00,WUHU216CR1000,2013-02-10 09:47:00,
2013-02-10 01:52:00,33.0,30.8,0.00,SSW,211,0.4,1.2,92,0.00,,,0.00,WUHU216CR1000,2013-02-10 09:52:00,
2013-02-10 02:02:00,32.7,30.9,0.00,SW,225,1.6,2.6,93,0.00,,,0.00,WUHU216CR1000,2013-02-10 10:02:00,
2013-02-10 02:07:00,32.7,30.9,0.00,SW,225,1.6,2.6,93,0.00,,,0.00,WUHU216CR1000,2013-02-10 10:07:00,
2013-02-10 02:17:00,33.1,31.1,0.00,SW,231,1.5,2.5,92,0.00,,,0.00,WUHU216CR1000,2013-02-10 10:17:00,
2013-02-10 02:22:00,33.1,31.1,0.00,SW,231,1.5,2.5,92,0.00,,,0.00,WUHU216CR1000,2013-02-10 10:22:00,
2013-02-10 02:32:00,32.6,30.8,0.00,SSE,163,1.6,2.6,93,0.00,,,0.00,WUHU216CR1000,2013-02-10 10:32:00,
2013-02-10 02:37:00,32.6,30.8,0.00,SSE,163,1.6,2.6,93,0.00,,,0.00,WUHU216CR1000,2013-02-10 10:37:00,
2013-02-10 02:47:00,32.7,30.8,0.00,SSW,211,0.5,2.4,92,0.00,,,0.00,WUHU216CR1000,2013-02-10 10:47:00,
2013-02-10 02:52:00,32.7,30.8,0.00,SSW,211,0.5,2.4,92,0.00,,,0.00,WUHU216CR1000,2013-02-10 10:52:00,
2013-02-10 03:02:00,32.3,30.7,0.00,SW,220,2.3,3.0,94,0.00,,,0.00,WUHU216CR1000,2013-02-10 11:02:00,
2013-02-10 03:07:00,32.3,30.7,0.00,SW,220,2.3,3.0,94,0.00,,,0.00,WUHU216CR1000,2013-02-10 11:07:00,
2013-02-10 03:17:00,32.1,30.8,0.00,SW,223,1.6,2.6,95,0.00,,,0.00,WUHU216CR1000,2013-02-10 11:17:00,
2013-02-10 03:22:00,32.1,30.8,0.00,SW,223,1.6,2.6,95,0.00,,,0.00,WUHU216CR1000,2013-02-10 11:22:00,
2013-02-10 03:32:00,31.8,30.5,0.00,SE,127,1.6,3.0,95,0.00,,,0.00,WUHU216CR1000,2013-02-10 11:32:00,
2013-02-10 03:37:00,31.8,30.5,0.00,SE,127,1.6,3.0,95,0.00,,,0.00,WUHU216CR1000,2013-02-10 11:37:00,
2013-02-10 03:47:00,32.0,30.3,0.00,East,100,2.4,4.2,93,0.00,,,0.00,WUHU216CR1000,2013-02-10 11:47:00,
2013-02-10 03:52:00,32.0,30.3,0.00,East,100,2.4,4.2,93,0.00,,,0.00,WUHU216CR1000,2013-02-10 11:52:00,
2013-02-10 04:02:00,31.6,30.1,0.00,SW,216,1.6,2.7,94,0.00,,,0.00,WUHU216CR1000,2013-02-10 12:02:00,
2013-02-10 04:07:00,31.6,30.1,0.00,SW,216,1.6,2.7,94,0.00,,,0.00,WUHU216CR1000,2013-02-10 12:07:00,
2013-02-10 04:17:00,31.8,30.6,0.00,WSW,238,1.5,2.5,95,0.00,,,0.00,WUHU216CR1000,2013-02-10 12:17:00,
2013-02-10 04:22:00,31.8,30.6,0.00,WSW,238,1.5,2.5,95,0.00,,,0.00,WUHU216CR1000,2013-02-10 12:22:00,
2013-02-10 04:32:00,31.4,30.2,0.00,SSW,208,1.9,2.9,95,0.00,,,0.00,WUHU216CR1000,2013-02-10 12:32:00,
2013-02-10 04:37:00,31.4,30.2,0.00,SSW,208,1.9,2.9,95,0.00,,,0.00,WUHU216CR1000,2013-02-10 12:37:00,
2013-02-10 04:47:00,31.0,29.9,0.00,WNW,285,1.0,2.7,96,0.00,,,0.00,WUHU216CR1000,2013-02-10 12:47:00,
2013-02-10 04:52:00,31.0,29.9,0.00,WNW,285,1.0,2.7,96,0.00,,,0.00,WUHU216CR1000,2013-02-10 12:52:00,
2013-02-10 05:02:00,30.6,29.6,0.00,SW,214,0.5,1.8,96,0.00,,,0.00,WUHU216CR1000,2013-02-10 13:02:00,
2013-02-10 05:07:00,30.6,29.6,0.00,SW,214,0.5,1.8,96,0.00,,,0.00,WUHU216CR1000,2013-02-10 13:07:00,
2013-02-10 05:17:00,30.7,29.8,0.00,WNW,285,0.5,1.5,96,0.00,,,0.00,WUHU216CR1000,2013-02-10 13:17:00,
2013-02-10 05:22:00,30.7,29.8,0.00,WNW,285,0.5,1.5,96,0.00,,,0.00,WUHU216CR1000,2013-02-10 13:22:00,
2013-02-10 05:32:00,30.6,29.6,0.00,SW,215,1.6,2.3,96,0.00,,,0.00,WUHU216CR1000,2013-02-10 13:32:00,
2013-02-10 05:37:00,30.6,29.6,0.00,SW,215,1.6,2.3,96,0.00,,,0.00,WUHU216CR1000,2013-02-10 13:37:00,
2013-02-10 05:47:00,30.4,29.3,0.00,SW,218,0.8,2.0,96,0.00,,,0.00,WUHU216CR1000,2013-02-10 13:47:00,
2013-02-10 05:52:00,30.4,29.3,0.00,SW,218,0.8,2.0,96,0.00,,,0.00,WUHU216CR1000,2013-02-10 13:52:00,
2013-02-10 06:02:00,30.3,29.4,0.00,WSW,246,0.9,2.0,96,0.00,,,0.00,WUHU216CR1000,2013-02-10 14:02:00,
2013-02-10 06:07:00,30.3,29.4,0.00,WSW,246,0.9,2.0,96,0.00,,,0.00,WUHU216CR1000,2013-02-10 14:07:00,
2013-02-10 06:17:00,30.9,29.9,0.00,ENE,78,1.2,3.2,96,0.00,,,0.00,WUHU216CR1000,2013-02-10 14:17:00,
2013-02-10 06:22:00,30.9,29.9,0.00,ENE,78,1.2,3.2,96,0.00,,,0.00,WUHU216CR1000,2013-02-10 14:22:00,
2013-02-10 06:32:00,30.2,29.0,0.00,WSW,241,1.1,2.0,95,0.00,,,0.00,WUHU216CR1000,2013-02-10 14:32:00,
2013-02-10 06:37:00,30.2,29.0,0.00,WSW,241,1.1,2.0,95,0.00,,,0.00,WUHU216CR1000,2013-02-10 14:37:00,
2013-02-10 06:47:00,30.1,29.1,0.00,WSW,257,1.3,2.5,96,0.00,,,0.00,WUHU216CR1000,2013-02-10 14:47:00,
2013-02-10 06:52:00,30.1,29.1,0.00,WSW,257,1.3,2.5,96,0.00,,,0.00,WUHU216CR1000,2013-02-10 14:52:00,
2013-02-10 07:02:00,30.1,29.2,0.00,SW,218,1.1,2.7,97,0.00,,,0.00,WUHU216CR1000,2013-02-10 15:02:00,
2013-02-10 07:07:00,30.1,29.2,0.00,SW,218,1.1,2.7,97,0.00,,,0.00,WUHU216CR1000,2013-02-10 15:07:00,
2013-02-10 07:17:00,29.4,28.5,0.00,SW,225,0.8,2.0,96,0.00,,,0.00,WUHU216CR1000,2013-02-10 15:17:00,
2013-02-10 07:22:00,29.4,28.5,0.00,SW,225,0.8,2.0,96,0.00,,,0.00,WUHU216CR1000,2013-02-10 15:22:00,
2013-02-10 07:32:00,29.9,29.1,0.00,SW,232,0.6,1.8,96,0.00,,,0.00,WUHU216CR1000,2013-02-10 15:32:00,
2013-02-10 07:37:00,29.9,29.1,0.00,SW,232,0.6,1.8,96,0.00,,,0.00,WUHU216CR1000,2013-02-10 15:37:00,
2013-02-10 07:47:00,31.1,30.1,0.00,WSW,237,0.5,2.1,96,0.00,,,0.00,WUHU216CR1000,2013-02-10 15:47:00,
2013-02-10 07:52:00,31.1,30.1,0.00,WSW,237,0.5,2.1,96,0.00,,,0.00,WUHU216CR1000,2013-02-10 15:52:00,
2013-02-10 08:02:00,31.9,30.5,0.00,SW,214,1.2,2.7,95,0.00,,,0.00,WUHU216CR1000,2013-02-10 16:02:00,
2013-02-10 08:07:00,31.9,30.5,0.00,SW,214,1.2,2.7,95,0.00,,,0.00,WUHU216CR1000,2013-02-10 16:07:00,
2013-02-10 08:17:00,34.5,32.1,0.00,ESE,112,1.0,3.1,91,0.00,,,0.00,WUHU216CR1000,2013-02-10 16:17:00,
2013-02-10 08:22:00,34.5,32.1,0.00,ESE,112,1.0,3.1,91,0.00,,,0.00,WUHU216CR1000,2013-02-10 16:22:00,
2013-02-10 08:32:00,35.7,32.6,0.00,ENE,62,0.2,1.3,88,0.00,,,0.00,WUHU216CR1000,2013-02-10 16:32:00,
2013-02-10 08:37:00,35.7,32.6,0.00,ENE,62,0.2,1.3,88,0.00,,,0.00,WUHU216CR1000,2013-02-10 16:37:00,
2013-02-10 08:47:00,38.9,34.1,0.00,ENE,75,0.3,1.9,83,0.00,,,0.00,WUHU216CR1000,2013-02-10 16:47:00,
2013-02-10 08:52:00,38.9,34.1,0.00,ENE,75,0.3,1.9,83,0.00,,,0.00,WUHU216CR1000,2013-02-10 16:52:00,
2013-02-10 09:02:00,39.4,34.7,0.00,East,83,1.7,3.0,83,0.00,,,0.00,WUHU216CR1000,2013-02-10 17:02:00,
2013-02-10 09:07:00,39.4,34.7,0.00,East,83,1.7,3.0,83,0.00,,,0.00,WUHU216CR1000,2013-02-10 17:07:00,
2013-02-10 09:17:00,39.8,34.9,0.00,East,98,1.9,2.9,82,0.00,,,0.00,WUHU216CR1000,2013-02-10 17:17:00,
2013-02-10 09:22:00,39.8,34.9,0.00,East,98,1.9,2.9,82,0.00,,,0.00,WUHU216CR1000,2013-02-10 17:22:00,
2013-02-10 09:32:00,41.0,35.4,0.00,East,87,1.6,3.1,80,0.00,,,0.00,WUHU216CR1000,2013-02-10 17:32:00,
2013-02-10 09:37:00,41.0,35.4,0.00,East,87,1.6,3.1,80,0.00,,,0.00,WUHU216CR1000,2013-02-10 17:37:00,
2013-02-10 09:47:00,42.9,36.0,0.00,East,91,1.0,2.6,77,0.00,,,0.00,WUHU216CR1000,2013-02-10 17:47:00,
2013-02-10 09:52:00,42.9,36.0,0.00,East,91,1.0,2.6,77,0.00,,,0.00,WUHU216CR1000,2013-02-10 17:52:00,
2013-02-10 10:02:00,44.0,36.2,0.00,ENE,68,1.8,3.7,74,0.00,,,0.00,WUHU216CR1000,2013-02-10 18:02:00,
2013-02-10 10:07:00,44.0,36.2,0.00,ENE,68,1.8,3.7,74,0.00,,,0.00,WUHU216CR1000,2013-02-10 18:07:00,
2013-02-10 10:17:00,45.3,36.2,0.00,ENE,60,1.6,3.7,70,0.00,,,0.00,WUHU216CR1000,2013-02-10 18:17:00,
2013-02-10 10:22:00,45.3,36.2,0.00,ENE,60,1.6,3.7,70,0.00,,,0.00,WUHU216CR1000,2013-02-10 18:22:00,
2013-02-10 10:32:00,46.7,36.1,0.00,ENE,73,1.3,3.7,67,0.00,,,0.00,WUHU216CR1000,2013-02-10 18:32:00,
2013-02-10 10:37:00,46.7,36.1,0.00,ENE,73,1.3,3.7,67,0.00,,,0.00,WUHU216CR1000,2013-02-10 18:37:00,
2013-02-10 10:47:00,48.7,36.6,0.00,East,97,0.9,3.1,63,0.00,,,0.00,WUHU216CR1000,2013-02-10 18:47:00,
2013-02-10 10:52:00,48.7,36.6,0.00,East,97,0.9,3.1,63,0.00,,,0.00,WUHU216CR1000,2013-02-10 18:52:00,
2013-02-10 11:02:00,49.8,36.4,0.00,ENE,72,1.1,3.3,60,0.00,,,0.00,WUHU216CR1000,2013-02-10 19:02:00,
2013-02-10 11:07:00,49.8,36.4,0.00,ENE,72,1.1,3.3,60,0.00,,,0.00,WUHU216CR1000,2013-02-10 19:07:00,
2013-02-10 11:17:00,51.1,37.5,0.00,SSE,152,1.2,3.3,60,0.00,,,0.00,WUHU216CR1000,2013-02-10 19:17:00,
2013-02-10 11:22:00,51.1,37.5,0.00,SSE,152,1.2,3.3,60,0.00,,,0.00,WUHU216CR1000,2013-02-10 19:22:00,
2013-02-10 11:32:00,52.4,37.3,0.00,SE,135,0.9,3.5,56,0.00,,,0.00,WUHU216CR1000,2013-02-10 19:32:00,
2013-02-10 11:37:00,52.4,37.3,0.00,SE,135,0.9,3.5,56,0.00,,,0.00,WUHU216CR1000,2013-02-10 19:37:00,
2013-02-10 11:47:00,53.4,38.6,0.00,NE,51,1.0,3.2,57,0.00,,,0.00,WUHU216CR1000,2013-02-10 19:47:00,
2013-02-10 11:52:00,53.4,38.6,0.00,NE,51,1.0,3.2,57,0.00,,,0.00,WUHU216CR1000,2013-02-10 19:52:00,
2013-02-10 12:02:00,54.9,38.8,0.00,East,89,1.9,4.3,54,0.00,,,0.00,WUHU216CR1000,2013-02-10 20:02:00,
2013-02-10 12:07:00,54.9,38.8,0.00,East,89,1.9,4.3,54,0.00,,,0.00,WUHU216CR1000,2013-02-10 20:07:00,
2013-02-10 12:17:00,56.0,37.1,0.00,NE,42,1.3,3.8,49,0.00,,,0.00,WUHU216CR1000,2013-02-10 20:17:00,
2013-02-10 12:22:00,56.0,37.1,0.00,NE,42,1.3,3.8,49,0.00,,,0.00,WUHU216CR1000,2013-02-10 20:22:00,
2013-02-10 12:32:00,58.0,37.8,0.00,South,172,1.6,5.7,47,0.00,,,0.00,WUHU216CR1000,2013-02-10 20:32:00,
2013-02-10 12:37:00,58.0,37.8,0.00,South,172,1.6,5.7,47,0.00,,,0.00,WUHU216CR1000,2013-02-10 20:37:00,
2013-02-10 12:47:00,59.4,35.7,0.00,SSW,204,2.6,5.3,41,0.00,,,0.00,WUHU216CR1000,2013-02-10 20:47:00,
2013-02-10 12:52:00,59.4,35.7,0.00,SSW,204,2.6,5.3,41,0.00,,,0.00,WUHU216CR1000,2013-02-10 20:52:00,
2013-02-10 13:02:00,60.9,34.5,0.00,SW,222,2.5,5.8,37,0.00,,,0.00,WUHU216CR1000,2013-02-10 21:02:00,
2013-02-10 13:07:00,60.9,34.5,0.00,SW,222,2.5,5.8,37,0.00,,,0.00,WUHU216CR1000,2013-02-10 21:07:00,
2013-02-10 13:17:00,62.3,33.0,0.00,South,169,1.7,4.7,33,0.00,,,0.00,WUHU216CR1000,2013-02-10 21:17:00,
2013-02-10 13:22:00,62.3,33.0,0.00,South,169,1.7,4.7,33,0.00,,,0.00,WUHU216CR1000,2013-02-10 21:22:00,
2013-02-10 13:32:00,63.1,34.6,0.00,ESE,113,2.1,6.7,34,0.00,,,0.00,WUHU216CR1000,2013-02-10 21:32:00,
2013-02-10 13:37:00,63.1,34.6,0.00,ESE,113,2.1,6.7,34,0.00,,,0.00,WUHU216CR1000,2013-02-10 21:37:00,
2013-02-10 13:47:00,63.6,36.0,0.00,SSE,153,2.9,7.3,36,0.00,,,0.00,WUHU216CR1000,2013-02-10 21:47:00,
2013-02-10 13:52:00,63.6,36.0,0.00,SSE,153,2.9,7.3,36,0.00,,,0.00,WUHU216CR1000,2013-02-10 21:52:00,
2013-02-10 14:02:00,63.4,37.8,0.00,ESE,106,3.6,7.0,39,0.00,,,0.00,WUHU216CR1000,2013-02-10 22:02:00,
2013-02-10 14:07:00,63.4,37.8,0.00,ESE,106,3.6,7.0,39,0.00,,,0.00,WUHU216CR1000,2013-02-10 22:07:00,
2013-02-10 14:17:00,63.7,37.8,0.00,ESE,106,4.7,7.8,38,0.00,,,0.00,WUHU216CR1000,2013-02-10 22:17:00,
2013-02-10 14:22:00,63.7,37.8,0.00,ESE,106,4.7,7.8,38,0.00,,,0.00,WUHU216CR1000,2013-02-10 22:22:00,
2013-02-10 14:32:00,64.2,38.0,0.00,ESE,113,4.2,9.0,38,0.00,,,0.00,WUHU216CR1000,2013-02-10 22:32:00,
2013-02-10 14:37:00,64.2,38.0,0.00,ESE,113,4.2,9.0,38,0.00,,,0.00,WUHU216CR1000,2013-02-10 22:37:00,
2013-02-10 14:42:00,64.2,38.0,0.00,ESE,113,4.2,9.0,38,0.00,,,0.00,WUHU216CR1000,2013-02-10 22:42:00,
2013-02-10 14:47:00,64.2,39.1,0.00,SE,129,4.7,9.4,40,0.00,,,0.00,WUHU216CR1000,2013-02-10 22:47:00,
2013-02-10 14:52:00,64.2,39.1,0.00,SE,129,4.7,9.4,40,0.00,,,0.00,WUHU216CR1000,2013-02-10 22:52:00,
2013-02-10 15:02:00,64.5,40.2,0.00,ESE,123,2.9,8.3,41,0.00,,,0.00,WUHU216CR1000,2013-02-10 23:02:00,
2013-02-10 15:07:00,64.5,40.2,0.00,ESE,123,2.9,8.3,41,0.00,,,0.00,WUHU216CR1000,2013-02-10 23:07:00,
2013-02-10 15:17:00,64.0,35.6,0.00,WNW,289,4.4,9.2,35,0.00,,,0.00,WUHU216CR1000,2013-02-10 23:17:00,
2013-02-10 15:22:00,64.0,35.6,0.00,WNW,289,4.4,9.2,35,0.00,,,0.00,WUHU216CR1000,2013-02-10 23:22:00,
2013-02-10 15:32:00,63.6,35.2,0.00,West,279,3.7,9.5,35,0.00,,,0.00,WUHU216CR1000,2013-02-10 23:32:00,
2013-02-10 15:37:00,63.6,35.2,0.00,West,279,3.7,9.5,35,0.00,,,0.00,WUHU216CR1000,2013-02-10 23:37:00,
2013-02-10 15:47:00,62.6,34.5,0.00,West,263,3.6,10.3,35,0.00,,,0.00,WUHU216CR1000,2013-02-10 23:47:00,
2013-02-10 15:52:00,62.6,34.5,0.00,West,263,3.6,10.3,35,0.00,,,0.00,WUHU216CR1000,2013-02-10 23:52:00,
2013-02-10 16:02:00,61.8,35.7,0.00,WSW,252,3.3,8.9,38,0.00,,,0.00,WUHU216CR1000,2013-02-11 00:02:00,
2013-02-10 16:07:00,61.8,35.7,0.00,WSW,252,3.3,8.9,38,0.00,,,0.00,WUHU216CR1000,2013-02-11 00:07:00,
2013-02-10 16:17:00,61.0,36.3,0.00,SW,233,4.5,13.4,40,0.00,,,0.00,WUHU216CR1000,2013-02-11 00:17:00,
2013-02-10 16:22:00,61.0,36.3,0.00,SW,233,4.5,13.4,40,0.00,,,0.00,WUHU216CR1000,2013-02-11 00:22:00,
2013-02-10 16:32:00,59.9,36.6,0.00,SW,226,5.4,13.5,42,0.00,,,0.00,WUHU216CR1000,2013-02-11 00:32:00,
2013-02-10 16:37:00,59.9,36.6,0.00,SW,226,5.4,13.5,42,0.00,,,0.00,WUHU216CR1000,2013-02-11 00:37:00,
2013-02-10 16:47:00,59.3,37.1,0.00,SW,234,4.2,9.3,44,0.00,,,0.00,WUHU216CR1000,2013-02-11 00:47:00,
2013-02-10 16:52:00,59.3,37.1,0.00,SW,234,4.2,9.3,44,0.00,,,0.00,WUHU216CR1000,2013-02-11 00:52:00,
2013-02-10 17:02:00,58.5,37.3,0.00,SW,230,3.4,9.5,45,0.00,,,0.00,WUHU216CR1000,2013-02-11 01:02:00,
2013-02-10 17:07:00,58.5,37.3,0.00,SW,230,3.4,9.5,45,0.00,,,0.00,WUHU216CR1000,2013-02-11 01:07:00,
2013-02-10 17:17:00,57.5,36.9,0.00,SSW,205,4.7,11.1,46,0.00,,,0.00,WUHU216CR1000,2013-02-11 01:17:00,
2013-02-10 17:22:00,57.5,36.9,0.00,SSW,205,4.7,11.1,46,0.00,,,0.00,WUHU216CR1000,2013-02-11 01:22:00,
2013-02-10 17:32:00,56.5,36.5,0.00,South,186,3.0,8.3,47,0.00,,,0.00,WUHU216CR1000,2013-02-11 01:32:00,
2013-02-10 17:37:00,56.5,36.5,0.00,South,186,3.0,8.3,47,0.00,,,0.00,WUHU216CR1000,2013-02-11 01:37:00,
2013-02-10 17:47:00,54.8,35.6,0.00,SSE,167,3.0,6.4,48,0.00,,,0.00,WUHU216CR1000,2013-02-11 01:47:00,
2013-02-10 17:52:00,54.8,35.6,0.00,SSE,167,3.0,6.4,48,0.00,,,0.00,WUHU216CR1000,2013-02-11 01:52:00,
2013-02-10 17:57:00,54.8,35.6,0.00,SSE,167,3.0,6.4,48,0.00,,,0.00,WUHU216CR1000,2013-02-11 01:57:00,
2013-02-10 18:02:00,54.7,35.2,0.00,SSE,148,4.1,7.3,48,0.00,,,0.00,WUHU216CR1000,2013-02-11 02:02:00,
2013-02-10 18:07:00,54.7,35.2,0.00,SSE,148,4.1,7.3,48,0.00,,,0.00,WUHU216CR1000,2013-02-11 02:07:00,
2013-02-10 18:17:00,52.1,37.3,0.00,ESE,105,4.6,7.0,57,0.00,,,0.00,WUHU216CR1000,2013-02-11 02:17:00,
2013-02-10 18:22:00,52.1,37.3,0.00,ESE,105,4.6,7.0,57,0.00,,,0.00,WUHU216CR1000,2013-02-11 02:22:00,
2013-02-10 18:32:00,50.1,37.9,0.00,ESE,113,4.9,6.9,63,0.00,,,0.00,WUHU216CR1000,2013-02-11 02:32:00,
2013-02-10 18:37:00,50.1,37.9,0.00,ESE,113,4.9,6.9,63,0.00,,,0.00,WUHU216CR1000,2013-02-11 02:37:00,
2013-02-10 18:47:00,50.5,37.3,0.00,SSE,166,2.7,7.5,60,0.00,,,0.00,WUHU216CR1000,2013-02-11 02:47:00,
2013-02-10 18:52:00,50.5,37.3,0.00,SSE,166,2.7,7.5,60,0.00,,,0.00,WUHU216CR1000,2013-02-11 02:52:00,
2013-02-10 19:02:00,48.3,37.1,0.00,SSE,159,0.0,0.8,65,0.00,,,0.00,WUHU216CR1000,2013-02-11 03:02:00,
2013-02-10 19:07:00,48.3,37.1,0.00,SSE,159,0.0,0.8,65,0.00,,,0.00,WUHU216CR1000,2013-02-11 03:07:00,
2013-02-10 19:17:00,46.9,36.8,0.00,SE,135,0.6,2.1,68,0.00,,,0.00,WUHU216CR1000,2013-02-11 03:17:00,
2013-02-10 19:22:00,46.9,36.8,0.00,SE,135,0.6,2.1,68,0.00,,,0.00,WUHU216CR1000,2013-02-11 03:22:00,
2013-02-10 19:32:00,45.4,36.8,0.00,East,96,0.8,1.9,72,0.00,,,0.00,WUHU216CR1000,2013-02-11 03:32:00,
2013-02-10 19:37:00,45.4,36.8,0.00,East,96,0.8,1.9,72,0.00,,,0.00,WUHU216CR1000,2013-02-11 03:37:00,
2013-02-10 19:47:00,44.6,37.0,0.00,NW,318,0.3,1.5,74,0.00,,,0.00,WUHU216CR1000,2013-02-11 03:47:00,
2013-02-10 19:52:00,44.6,37.0,0.00,NW,318,0.3,1.5,74,0.00,,,0.00,WUHU216CR1000,2013-02-11 03:52:00,
2013-02-10 20:02:00,42.4,36.6,0.00,NNW,339,1.3,2.5,80,0.00,,,0.00,WUHU216CR1000,2013-02-11 04:02:00,
2013-02-10 20:07:00,42.4,36.6,0.00,NNW,339,1.3,2.5,80,0.00,,,0.00,WUHU216CR1000,2013-02-11 04:07:00,
2013-02-10 20:17:00,41.6,36.6,0.00,NNW,342,1.0,2.3,82,0.00,,,0.00,WUHU216CR1000,2013-02-11 04:17:00,
2013-02-10 20:22:00,41.6,36.6,0.00,NNW,342,1.0,2.3,82,0.00,,,0.00,WUHU216CR1000,2013-02-11 04:22:00,
2013-02-10 20:32:00,42.3,37.5,0.00,West,274,0.9,1.8,83,0.00,,,0.00,WUHU216CR1000,2013-02-11 04:32:00,
2013-02-10 20:37:00,42.3,37.5,0.00,West,274,0.9,1.8,83,0.00,,,0.00,WUHU216CR1000,2013-02-11 04:37:00,
2013-02-10 20:47:00,42.0,37.2,0.00,WSW,238,1.3,3.0,83,0.00,,,0.00,WUHU216CR1000,2013-02-11 04:47:00,
2013-02-10 20:52:00,42.0,37.2,0.00,WSW,238,1.3,3.0,83,0.00,,,0.00,WUHU216CR1000,2013-02-11 04:52:00,
2013-02-10 21:02:00,41.1,36.9,0.00,WSW,256,0.4,2.5,85,0.00,,,0.00,WUHU216CR1000,2013-02-11 05:02:00,
2013-02-10 21:07:00,41.1,36.9,0.00,WSW,256,0.4,2.5,85,0.00,,,0.00,WUHU216CR1000,2013-02-11 05:07:00,
2013-02-10 21:17:00,40.8,37.0,0.00,West,264,1.2,3.4,86,0.00,,,0.00,WUHU216CR1000,2013-02-11 05:17:00,
2013-02-10 21:22:00,40.8,37.0,0.00,West,264,1.2,3.4,86,0.00,,,0.00,WUHU216CR1000,2013-02-11 05:22:00,
2013-02-10 21:32:00,40.1,37.0,0.00,WSW,243,2.2,4.4,89,0.00,,,0.00,WUHU216CR1000,2013-02-11 05:32:00,
2013-02-10 21:37:00,40.1,37.0,0.00,WSW,243,2.2,4.4,89,0.00,,,0.00,WUHU216CR1000,2013-02-11 05:37:00,
2013-02-10 21:47:00,40.2,36.7,0.00,SW,223,0.8,2.4,87,0.00,,,0.00,WUHU216CR1000,2013-02-11 05:47:00,
2013-02-10 21:52:00,40.2,36.7,0.00,SW,223,0.8,2.4,87,0.00,,,0.00,WUHU216CR1000,2013-02-11 05:52:00,
2013-02-10 22:02:00,39.7,36.9,0.00,WSW,253,1.0,2.1,90,0.00,,,0.00,WUHU216CR1000,2013-02-11 06:02:00,
2013-02-10 22:07:00,39.7,36.9,0.00,WSW,253,1.0,2.1,90,0.00,,,0.00,WUHU216CR1000,2013-02-11 06:07:00,
2013-02-10 22:17:00,39.9,37.1,0.00,West,261,0.8,2.2,90,0.00,,,0.00,WUHU216CR1000,2013-02-11 06:17:00,
2013-02-10 22:22:00,39.9,37.1,0.00,West,261,0.8,2.2,90,0.00,,,0.00,WUHU216CR1000,2013-02-11 06:22:00,
2013-02-10 22:32:00,39.6,36.8,0.00,WSW,251,0.7,2.6,89,0.00,,,0.00,WUHU216CR1000,2013-02-11 06:32:00,
2013-02-10 22:37:00,39.6,36.8,0.00,WSW,251,0.7,2.6,89,0.00,,,0.00,WUHU216CR1000,2013-02-11 06:37:00,
2013-02-10 22:47:00,38.8,36.0,0.00,East,95,1.7,5.8,90,0.00,,,0.00,WUHU216CR1000,2013-02-11 06:47:00,
2013-02-10 22:52:00,38.8,36.0,0.00,East,95,1.7,5.8,90,0.00,,,0.00,WUHU216CR1000,2013-02-11 06:52:00,
2013-02-10 23:02:00,38.9,36.2,0.00,South,173,1.0,3.2,90,0.00,,,0.00,WUHU216CR1000,2013-02-11 07:02:00,
2013-02-10 23:07:00,38.9,36.2,0.00,South,173,1.0,3.2,90,0.00,,,0.00,WUHU216CR1000,2013-02-11 07:07:00,
2013-02-10 23:17:00,38.0,35.5,0.00,West,263,1.5,3.4,90,0.00,,,0.00,WUHU216CR1000,2013-02-11 07:17:00,
2013-02-10 23:22:00,38.0,35.5,0.00,West,263,1.5,3.4,90,0.00,,,0.00,WUHU216CR1000,2013-02-11 07:22:00,
2013-02-10 23:32:00,38.4,36.3,0.00,SW,227,2.6,4.2,92,0.00,,,0.00,WUHU216CR1000,2013-02-11 07:32:00,
2013-02-10 23:37:00,38.4,36.3,0.00,SW,227,2.6,4.2,92,0.00,,,0.00,WUHU216CR1000,2013-02-11 07:37:00,
2013-02-10 23:47:00,38.5,36.5,0.00,SSW,210,3.2,5.3,93,0.00,,,0.00,WUHU216CR1000,2013-02-11 07:47:00,
2013-02-10 23:52:00,38.5,36.5,0.00,SSW,210,3.2,5.3,93,0.00,,,0.00,WUHU216CR1000,2013-02-11 07:52:00,